(488804) = 2005 GK163

Discovered at Mount Lemmon on 2005-04-10 by Mt. Lemmon Survey.

Orbit

Orbit type: Main Belt

Note: WebGL enabled browser required.

epoch2022-01-21.0
epoch JD2459600.5
perihelion date2021-07-14.69369
perihelion JD2459410.19369
argument of perihelion (°)59.47419
ascending node (°)27.89931
inclination (°)17.36602
eccentricity0.1632906
perihelion distance (AU)2.2387352
Tisserand w.r.t. Jupiter3.3
ΔV w.r.t. Earth (km/sec)10.8
semimajor axis (AU)2.6756423
mean anomaly (°)42.85633
mean daily motion (°/day)0.22519660
aphelion distance (AU)3.113
period (years)4.38
P-vector [x]0.06419775
P-vector [y]0.78240955
P-vector [z]0.61944648
Q-vector [x]-0.98811595
Q-vector [y]-0.03703384
Q-vector [z]0.14918230
absolute magnitude17.75
phase slope0.15
uncertainty0
referenceMPO 700712
observations used117
oppositions7
arc length (days)6195
first opposition used2005
last opposition used2022
residual rms (arc-secs)0.85
perturbers coarse indicatorM-v
perturbers precise indicator003Ek
first observation date used2005-04-10.0
last observation date used2022-03-27.0
computer namePan
JD of orbit computation2457847.201485
perihelion JD uncertainty (days)2.9732E-04
argument of perihelion uncertainty (°)7.7151E-05
ascending node uncertainty (°)2.4671E-05
inclination uncertainty (°)3.2441E-05
eccentricity uncertainty 1.5828E-07
perihelion distance uncertainty (AU)4.1434E-07
Minimum Orbit Intersection Distances (in AU)
for orbit epoch: 2458200.5, reference: MPO403277
Mercury1.94126
Venus1.55431
Earth1.30468
Mars0.813211
Jupiter2.37253
Saturn6.87732
Uranus15.4694
Neptune27.2181

Observations

120 total observations over interval: 2005 04 10.32932 – 2022 03 27.285552
These data are available for download (format description).

